Back to catalog

CZ-6A DEB

AlivePO
NORAD 60834·DEBRIS·🇨🇳 China

Launched Aug 6, 2024 from Taiyuan Satellite Launch Center

Loading…

Next Passes (next 24 hours)

TLE

FreshSource: Space-Track

Epoch: Sep 14, 2026, 07:13 UTC

1 60834U 24140HM  26257.30121816  .00000031  00000-0  10747-4 0  9993
2 60834  89.0098 268.3164 0109843 315.4037  43.8345 14.04922720107001

Track CZ-6A DEB in real time with AllMySat

Download on the App Store